Regional Weather Roundup
Issued by NWS Memphis, TN

Home | Current Version | Previous Version | Text Only | Print | Product List | Glossary On
Versions: 1 2 3 4 5 6 7 8 9 10 11 12 13 14 15 16 17 18 19 20 21 22 23 24 25 26 27 28 29 30 31 32 33 34 35 36 37 38 39 40 41 42 43 44 45 46 47 48 49 50
000
ASUS44 KMEG 250900
RWRMEG
MEMPHIS CWA HOURLY WEATHER ROUNDUP
NATIONAL WEATHER SERVICE MEMPHIS TN
400 AM CDT FRI JUL 25 2014

...WEST TENNESSEE...

CITY           SKY/WX    TMP DP  RH WIND       PRES   REMARKS
MEMPHIS INTL   CLEAR     69  60  73 CALM      30.02R
NWS MEMPHIS      N/A     62 N/A N/A MISG        N/A
JACKSON        CLEAR     60  58  92 CALM      30.04R
LEXINGTON      CLEAR     59  57  94 N5        30.02R
SAVANNAH       CLEAR     59  59 100 CALM      30.01S
DYERSBURG      CLEAR     61  52  72 CALM      30.05R
UNION CITY     CLEAR     59  59 100 CALM      30.04R
PARIS          CLEAR     57  55  94 CALM      30.05R


...EASTERN ARKANSAS...

CITY           SKY/WX    TMP DP  RH WIND       PRES   REMARKS
JONESBORO      CLEAR     61  59  93 CALM      30.03S
WEST MEMPHIS   CLEAR     63  63 100 CALM      30.02R
BATESVILLE     CLEAR     61  61 100 CALM      30.04S
WALNUT RIDGE   CLEAR     64  61  88 W3        30.03F
BLYTHEVILLE    CLEAR     62  61  96 CALM      30.04R
STUTTGART      CLEAR     64  59  82 W5        30.03S
PINE BLUFF     CLEAR     62  60  93 CALM      30.03R
MONTICELLO     CLEAR     65  61  87 CALM      30.03R


...NORTH MISSISSIPPI...

CITY           SKY/WX    TMP DP  RH WIND       PRES   REMARKS
TUPELO         CLEAR     63  61  93 CALM      30.00R
OLIVE BRANCH   CLEAR     61  61 100 CALM      30.03R
CLARKSDALE     CLEAR     63  63 100 CALM      30.02F
GRENADA        CLEAR     59  59 100 CALM      30.01S
GREENWOOD      CLEAR     62  60  93 NE3       30.00S FOG
COLUMBUS       CLEAR     62  62 100 W2        30.00S
STARKVILLE     FAIR      63  61  94 CALM      30.00S
GOLDEN TRIANGL CLEAR     64  61  88 NW3       30.00S


...SOUTHEAST MISSOURI...

CITY           SKY/WX    TMP DP  RH WIND       PRES   REMARKS
WEST PLAINS    CLEAR     63  56  78 CALM      30.06F
POPLAR BLUFF   CLEAR     60  57  89 CALM      30.03S
CAPE GIRARDEAU FOG       60  59  96 CALM      30.05R VSB 3/4


...NORTHWEST ALABAMA...

CITY           SKY/WX    TMP DP  RH WIND       PRES   REMARKS
MUSCLE SHOALS  FOG       63  61  93 CALM      30.00F VSB 1/2


...MIDDLE TENNESSEE...

CITY           SKY/WX    TMP DP  RH WIND       PRES   REMARKS
NASHVILLE      CLEAR     64  58  80 NE6       30.04R
CLARKSVILLE    CLEAR     58  54  86 N5        30.05R
COLUMBIA       CLEAR     63  63 100 CALM      30.02R


...WESTERN KENTUCKY...

CITY           SKY/WX    TMP DP  RH WIND       PRES   REMARKS
PADUCAH        CLEAR     58  56  93 CALM      30.05S
FORT CAMPBELL  CLEAR     58  55  88 N6        30.06R


...CENTRAL ARKANSAS...

CITY           SKY/WX    TMP DP  RH WIND       PRES   REMARKS
LITTLE ROCK    CLEAR     65  62  90 CALM      30.04R


SKY/WX REPORTED AS FAIR MEANS FEW OR NO CLOUDS BELOW
12 THOUSAND FEET.




USA.gov is the U.S. government's official web portal to all federal, state and local government web resources and services.